Year,Month,Day,Hour,Minute,Value (Times are PST for temperature in C)
2010,08,14,00,00,18.10
2010,08,14,00,01,18.10
2010,08,14,00,02,18.10
2010,08,14,00,03,18.00
2010,08,14,00,04,18.00
2010,08,14,00,05,17.90
2010,08,14,00,06,17.90
2010,08,14,00,07,17.90
2010,08,14,00,08,17.90
2010,08,14,00,09,17.90
2010,08,14,00,10,18.00
2010,08,14,00,11,18.00
2010,08,14,00,12,18.00
2010,08,14,00,13,18.00
2010,08,14,00,14,18.10
2010,08,14,00,15,18.10
2010,08,14,00,16,18.20
2010,08,14,00,17,18.20
2010,08,14,00,18,18.30
2010,08,14,00,19,18.30
2010,08,14,00,20,18.40
2010,08,14,00,21,18.40
2010,08,14,00,22,18.40
2010,08,14,00,23,18.40
2010,08,14,00,24,18.30
2010,08,14,00,25,18.30
2010,08,14,00,26,18.20
2010,08,14,00,27,18.10
2010,08,14,00,28,17.90
2010,08,14,00,29,17.80
2010,08,14,00,30,17.70
2010,08,14,00,31,17.60
2010,08,14,00,32,17.60
2010,08,14,00,33,17.50
2010,08,14,00,34,17.40
2010,08,14,00,35,17.30
2010,08,14,00,36,17.30
2010,08,14,00,37,17.30
2010,08,14,00,38,17.30
2010,08,14,00,39,17.30
2010,08,14,00,40,17.30
2010,08,14,00,41,17.30
2010,08,14,00,42,17.30
2010,08,14,00,43,17.30
2010,08,14,00,44,17.30
2010,08,14,00,45,17.30
2010,08,14,00,46,17.20
2010,08,14,00,47,17.20
2010,08,14,00,48,17.10
2010,08,14,00,49,17.00
2010,08,14,00,50,16.90
2010,08,14,00,51,16.90
2010,08,14,00,52,16.90
2010,08,14,00,53,16.90
2010,08,14,00,54,16.90
2010,08,14,00,55,16.80
2010,08,14,00,56,16.80
2010,08,14,00,57,16.70
2010,08,14,00,58,16.70
2010,08,14,00,59,16.70
2010,08,14,01,00,16.70
2010,08,14,01,01,16.70
2010,08,14,01,02,16.80
2010,08,14,01,03,16.80
2010,08,14,01,04,16.80
2010,08,14,01,05,16.80
2010,08,14,01,06,16.80
2010,08,14,01,07,16.80
2010,08,14,01,08,16.80
2010,08,14,01,09,16.70
2010,08,14,01,10,16.70
2010,08,14,01,11,16.70
2010,08,14,01,12,16.70
2010,08,14,01,13,16.70
2010,08,14,01,14,16.60
2010,08,14,01,15,16.60
2010,08,14,01,16,16.50
2010,08,14,01,17,16.40
2010,08,14,01,18,16.40
2010,08,14,01,19,16.40
2010,08,14,01,20,16.40
2010,08,14,01,21,16.40
2010,08,14,01,22,16.50
2010,08,14,01,23,16.50
2010,08,14,01,24,16.60
2010,08,14,01,25,16.60
2010,08,14,01,26,16.70
2010,08,14,01,27,16.70
2010,08,14,01,28,16.70
2010,08,14,01,29,16.70
2010,08,14,01,30,16.60
2010,08,14,01,31,16.60
2010,08,14,01,32,16.50
2010,08,14,01,33,16.50
2010,08,14,01,34,16.40
2010,08,14,01,35,16.40
2010,08,14,01,36,16.40
2010,08,14,01,37,16.40
2010,08,14,01,38,16.40
2010,08,14,01,39,16.40
2010,08,14,01,40,16.40
2010,08,14,01,41,16.40
2010,08,14,01,42,16.40
2010,08,14,01,43,16.50
2010,08,14,01,44,16.60
2010,08,14,01,45,16.70
2010,08,14,01,46,16.70
2010,08,14,01,47,16.70
2010,08,14,01,48,16.70
2010,08,14,01,49,16.80
2010,08,14,01,50,16.80
2010,08,14,01,51,16.80
2010,08,14,01,52,16.80
2010,08,14,01,53,16.80
2010,08,14,01,54,16.70
2010,08,14,01,55,16.60
2010,08,14,01,56,16.60
2010,08,14,01,57,16.50
2010,08,14,01,58,16.50
2010,08,14,01,59,16.40
2010,08,14,02,00,16.40
2010,08,14,02,01,16.30
2010,08,14,02,02,16.30
2010,08,14,02,03,16.20
2010,08,14,02,04,16.20
2010,08,14,02,05,16.20
2010,08,14,02,06,16.30
2010,08,14,02,07,16.30
2010,08,14,02,08,16.30
2010,08,14,02,09,16.40
2010,08,14,02,10,16.40
2010,08,14,02,11,16.30
2010,08,14,02,12,16.30
2010,08,14,02,13,16.30
2010,08,14,02,14,16.30
2010,08,14,02,15,16.50
2010,08,14,02,16,16.60
2010,08,14,02,17,16.60
2010,08,14,02,18,16.80
2010,08,14,02,19,16.90
2010,08,14,02,20,17.00
2010,08,14,02,21,17.10
2010,08,14,02,22,17.30
2010,08,14,02,23,17.40
2010,08,14,02,24,17.40
2010,08,14,02,25,17.40
2010,08,14,02,26,17.40
2010,08,14,02,27,17.40
2010,08,14,02,28,17.40
2010,08,14,02,29,17.40
2010,08,14,02,30,17.40
2010,08,14,02,31,17.40
2010,08,14,02,32,17.40
2010,08,14,02,33,17.40
2010,08,14,02,34,17.40
2010,08,14,02,35,17.30
2010,08,14,02,36,17.30
2010,08,14,02,37,17.20
2010,08,14,02,38,17.20
2010,08,14,02,39,17.10
2010,08,14,02,40,17.10
2010,08,14,02,41,17.00
2010,08,14,02,42,16.90
2010,08,14,02,43,16.80
2010,08,14,02,44,16.80
2010,08,14,02,45,16.80
2010,08,14,02,46,16.70
2010,08,14,02,47,16.70
2010,08,14,02,48,16.60
2010,08,14,02,49,16.50
2010,08,14,02,50,16.40
2010,08,14,02,51,16.40
2010,08,14,02,52,16.30
2010,08,14,02,53,16.20
2010,08,14,02,54,16.20
2010,08,14,02,55,16.20
2010,08,14,02,56,16.30
2010,08,14,02,57,16.40
2010,08,14,02,58,16.50
2010,08,14,02,59,16.70
2010,08,14,03,00,16.70
2010,08,14,03,01,16.80
2010,08,14,03,02,17.00
2010,08,14,03,03,17.30
2010,08,14,03,04,17.30
2010,08,14,03,05,17.20
2010,08,14,03,06,17.10
2010,08,14,03,07,17.00
2010,08,14,03,08,16.90
2010,08,14,03,09,16.80
2010,08,14,03,10,16.70
2010,08,14,03,11,16.60
2010,08,14,03,12,16.50
2010,08,14,03,13,16.40
2010,08,14,03,14,16.30
2010,08,14,03,15,16.30
2010,08,14,03,16,16.20
2010,08,14,03,17,16.10
2010,08,14,03,18,16.00
2010,08,14,03,19,15.90
2010,08,14,03,20,16.10
2010,08,14,03,21,16.20
2010,08,14,03,22,16.20
2010,08,14,03,23,16.10
2010,08,14,03,24,16.00
2010,08,14,03,25,15.90
2010,08,14,03,26,15.90
2010,08,14,03,27,15.80
2010,08,14,03,28,15.80
2010,08,14,03,29,15.90
2010,08,14,03,30,16.00
2010,08,14,03,31,16.20
2010,08,14,03,32,16.60
2010,08,14,03,33,16.90
2010,08,14,03,34,17.00
2010,08,14,03,35,17.20
2010,08,14,03,36,17.20
2010,08,14,03,37,17.20
2010,08,14,03,38,17.10
2010,08,14,03,39,17.00
2010,08,14,03,40,16.80
2010,08,14,03,41,16.70
2010,08,14,03,42,16.60
2010,08,14,03,43,16.60
2010,08,14,03,44,16.60
2010,08,14,03,45,16.60
2010,08,14,03,46,16.60
2010,08,14,03,47,16.50
2010,08,14,03,48,16.50
2010,08,14,03,49,16.50
2010,08,14,03,50,16.50
2010,08,14,03,51,16.40
2010,08,14,03,52,16.40
2010,08,14,03,53,16.30
2010,08,14,03,54,16.30
2010,08,14,03,55,16.20
2010,08,14,03,56,16.10
2010,08,14,03,57,16.00
2010,08,14,03,58,16.10
2010,08,14,03,59,16.20
2010,08,14,04,00,16.20
2010,08,14,04,01,16.20
2010,08,14,04,02,16.20
2010,08,14,04,03,16.20
2010,08,14,04,04,16.20
2010,08,14,04,05,16.10
2010,08,14,04,06,16.00
2010,08,14,04,07,16.00
2010,08,14,04,08,15.90
2010,08,14,04,09,15.90
2010,08,14,04,10,16.00
2010,08,14,04,11,16.10
2010,08,14,04,12,16.20
2010,08,14,04,13,16.20
2010,08,14,04,14,16.20
2010,08,14,04,15,16.20
2010,08,14,04,16,16.30
2010,08,14,04,17,16.30
2010,08,14,04,18,16.30
2010,08,14,04,19,16.40
2010,08,14,04,20,16.50
2010,08,14,04,21,16.60
2010,08,14,04,22,16.60
2010,08,14,04,23,16.60
2010,08,14,04,24,16.50
2010,08,14,04,25,16.30
2010,08,14,04,26,16.20
2010,08,14,04,27,16.10
2010,08,14,04,28,16.00
2010,08,14,04,29,15.90
2010,08,14,04,30,15.90
2010,08,14,04,31,15.80
2010,08,14,04,32,15.60
2010,08,14,04,33,15.60
2010,08,14,04,34,15.60
2010,08,14,04,35,15.70
2010,08,14,04,36,15.80
2010,08,14,04,37,15.90
2010,08,14,04,38,16.10
2010,08,14,04,39,16.20
2010,08,14,04,40,16.30
2010,08,14,04,41,16.30
2010,08,14,04,42,16.20
2010,08,14,04,43,16.10
2010,08,14,04,44,15.90
2010,08,14,04,45,15.70
2010,08,14,04,46,15.60
2010,08,14,04,47,15.50
2010,08,14,04,48,15.50
2010,08,14,04,49,15.50
2010,08,14,04,50,15.60
2010,08,14,04,51,15.50
2010,08,14,04,52,15.60
2010,08,14,04,53,15.60
2010,08,14,04,54,15.70
2010,08,14,04,55,15.70
2010,08,14,04,56,15.70
2010,08,14,04,57,15.70
2010,08,14,04,58,15.60
2010,08,14,04,59,15.50
2010,08,14,05,00,15.50
2010,08,14,05,01,15.40
2010,08,14,05,02,15.40
2010,08,14,05,03,15.50
2010,08,14,05,04,15.70
2010,08,14,05,05,15.80
2010,08,14,05,06,15.90
2010,08,14,05,07,16.10
2010,08,14,05,08,16.20
2010,08,14,05,09,16.30
2010,08,14,05,10,16.30
2010,08,14,05,11,16.30
2010,08,14,05,12,16.40
2010,08,14,05,13,16.40
2010,08,14,05,14,16.40
2010,08,14,05,15,16.40
2010,08,14,05,16,16.30
2010,08,14,05,17,16.10
2010,08,14,05,18,15.90
2010,08,14,05,19,15.80
2010,08,14,05,20,15.70
2010,08,14,05,21,15.60
2010,08,14,05,22,15.60
2010,08,14,05,23,15.70
2010,08,14,05,24,15.70
2010,08,14,05,25,15.80
2010,08,14,05,26,15.90
2010,08,14,05,27,16.00
2010,08,14,05,28,16.20
2010,08,14,05,29,16.30
2010,08,14,05,30,16.30
2010,08,14,05,31,16.30
2010,08,14,05,32,16.40
2010,08,14,05,33,16.30
2010,08,14,05,34,16.30
2010,08,14,05,35,16.40
2010,08,14,05,36,16.40
2010,08,14,05,37,16.40
2010,08,14,05,38,16.30
2010,08,14,05,39,16.20
2010,08,14,05,40,16.10
2010,08,14,05,41,16.00
2010,08,14,05,42,15.80
2010,08,14,05,43,15.80
2010,08,14,05,44,15.70
2010,08,14,05,45,15.70
2010,08,14,05,46,15.80
2010,08,14,05,47,15.80
2010,08,14,05,48,15.90
2010,08,14,05,49,16.10
2010,08,14,05,50,16.20
2010,08,14,05,51,16.30
2010,08,14,05,52,16.30
2010,08,14,05,53,16.30
2010,08,14,05,54,16.20
2010,08,14,05,55,16.10
2010,08,14,05,56,16.00
2010,08,14,05,57,15.90
2010,08,14,05,58,15.70
2010,08,14,05,59,15.60
2010,08,14,06,00,15.60
2010,08,14,06,01,15.60
2010,08,14,06,02,15.70
2010,08,14,06,03,15.60
2010,08,14,06,04,15.60
2010,08,14,06,05,15.50
2010,08,14,06,06,15.50
2010,08,14,06,07,15.50
2010,08,14,06,08,15.50
2010,08,14,06,09,15.50
2010,08,14,06,10,15.50
2010,08,14,06,11,15.40
2010,08,14,06,12,15.40
2010,08,14,06,13,15.40
2010,08,14,06,14,15.40
2010,08,14,06,15,15.40
2010,08,14,06,16,15.30
2010,08,14,06,17,15.30
2010,08,14,06,18,15.20
2010,08,14,06,19,15.20
2010,08,14,06,20,15.20
2010,08,14,06,21,15.10
2010,08,14,06,22,15.20
2010,08,14,06,23,15.30
2010,08,14,06,24,15.20
2010,08,14,06,25,15.20
2010,08,14,06,26,15.00
2010,08,14,06,27,15.00
2010,08,14,06,28,15.00
2010,08,14,06,29,14.90
2010,08,14,06,30,14.80
2010,08,14,06,31,14.70
2010,08,14,06,32,14.70
2010,08,14,06,33,14.80
2010,08,14,06,34,14.80
2010,08,14,06,35,14.80
2010,08,14,06,36,14.80
2010,08,14,06,37,14.90
2010,08,14,06,38,14.90
2010,08,14,06,39,14.80
2010,08,14,06,40,14.80
2010,08,14,06,41,14.70
2010,08,14,06,42,14.80
2010,08,14,06,43,14.90
2010,08,14,06,44,14.90
2010,08,14,06,45,14.90
2010,08,14,06,46,14.80
2010,08,14,06,47,14.80
2010,08,14,06,48,14.90
2010,08,14,06,49,15.00
2010,08,14,06,50,15.00
2010,08,14,06,51,15.00
2010,08,14,06,52,14.90
2010,08,14,06,53,14.80
2010,08,14,06,54,14.70
2010,08,14,06,55,14.60
2010,08,14,06,56,14.50
2010,08,14,06,57,14.40
2010,08,14,06,58,14.40
2010,08,14,06,59,14.40
2010,08,14,07,00,14.40
2010,08,14,07,01,14.40
2010,08,14,07,02,14.40
2010,08,14,07,03,14.40
2010,08,14,07,04,14.40
2010,08,14,07,05,14.50
2010,08,14,07,06,14.50
2010,08,14,07,07,14.50
2010,08,14,07,08,14.50
2010,08,14,07,09,14.50
2010,08,14,07,10,14.60
2010,08,14,07,11,14.50
2010,08,14,07,12,14.50
2010,08,14,07,13,14.60
2010,08,14,07,14,14.60
2010,08,14,07,15,14.50
2010,08,14,07,16,14.50
2010,08,14,07,17,14.60
2010,08,14,07,18,14.70
2010,08,14,07,19,14.90
2010,08,14,07,20,15.00
2010,08,14,07,21,15.10
2010,08,14,07,22,15.20
2010,08,14,07,23,15.30
2010,08,14,07,24,15.40
2010,08,14,07,25,15.50
2010,08,14,07,26,15.50
2010,08,14,07,27,15.70
2010,08,14,07,28,15.80
2010,08,14,07,29,15.90
2010,08,14,07,30,16.00
2010,08,14,07,31,16.10
2010,08,14,07,32,16.20
2010,08,14,07,33,16.30
2010,08,14,07,34,16.40
2010,08,14,07,35,16.60
2010,08,14,07,36,16.80
2010,08,14,07,37,16.90
2010,08,14,07,38,16.90
2010,08,14,07,39,17.00
2010,08,14,07,40,17.00
2010,08,14,07,41,17.00
2010,08,14,07,42,17.00
2010,08,14,07,43,16.90
2010,08,14,07,44,17.00
2010,08,14,07,45,17.10
2010,08,14,07,46,17.20
2010,08,14,07,47,17.30
2010,08,14,07,48,17.30
2010,08,14,07,49,17.30
2010,08,14,07,50,17.30
2010,08,14,07,51,17.40
2010,08,14,07,52,17.60
2010,08,14,07,53,17.90
2010,08,14,07,54,18.10
2010,08,14,07,55,18.30
2010,08,14,07,56,18.40
2010,08,14,07,57,18.50
2010,08,14,07,58,18.60
2010,08,14,07,59,18.70
2010,08,14,08,00,18.70
2010,08,14,08,01,18.80
2010,08,14,08,02,18.90
2010,08,14,08,03,19.00
2010,08,14,08,04,19.20
2010,08,14,08,05,19.30
2010,08,14,08,06,19.40
2010,08,14,08,07,19.60
2010,08,14,08,08,19.70
2010,08,14,08,09,19.90
2010,08,14,08,10,20.00
2010,08,14,08,11,20.20
2010,08,14,08,12,20.40
2010,08,14,08,13,20.60
2010,08,14,08,14,20.80
2010,08,14,08,15,21.10
2010,08,14,08,16,21.20
2010,08,14,08,17,21.40
2010,08,14,08,18,21.60
2010,08,14,08,19,21.80
2010,08,14,08,20,21.90
2010,08,14,08,21,22.10
2010,08,14,08,22,22.30
2010,08,14,08,23,22.40
2010,08,14,08,24,22.50
2010,08,14,08,25,22.60
2010,08,14,08,26,22.80
2010,08,14,08,27,22.90
2010,08,14,08,28,23.00
2010,08,14,08,29,23.10
2010,08,14,08,30,23.20
2010,08,14,08,31,23.30
2010,08,14,08,32,23.40
2010,08,14,08,33,23.40
2010,08,14,08,34,23.50
2010,08,14,08,35,23.40
2010,08,14,08,36,23.40
2010,08,14,08,37,23.40
2010,08,14,08,38,23.50
2010,08,14,08,39,23.60
2010,08,14,08,40,23.60
2010,08,14,08,41,23.70
2010,08,14,08,42,23.70
2010,08,14,08,43,23.70
2010,08,14,08,44,23.80
2010,08,14,08,45,23.90
2010,08,14,08,46,24.00
2010,08,14,08,47,24.00
2010,08,14,08,48,24.10
2010,08,14,08,49,24.10
2010,08,14,08,50,24.10
2010,08,14,08,51,24.10
2010,08,14,08,52,24.00
2010,08,14,08,53,24.00
2010,08,14,08,54,23.90
2010,08,14,08,55,23.80
2010,08,14,08,56,23.80
2010,08,14,08,57,23.80
2010,08,14,08,58,23.80
2010,08,14,08,59,23.80
2010,08,14,09,00,23.80
2010,08,14,09,01,23.70
2010,08,14,09,02,23.70
2010,08,14,09,03,23.80
2010,08,14,09,04,23.80
2010,08,14,09,05,23.80
2010,08,14,09,06,23.80
2010,08,14,09,07,23.90
2010,08,14,09,08,23.90
2010,08,14,09,09,24.00
2010,08,14,09,10,24.00
2010,08,14,09,11,24.10
2010,08,14,09,12,24.10
2010,08,14,09,13,24.10
2010,08,14,09,14,24.20
2010,08,14,09,15,24.20
2010,08,14,09,16,24.30
2010,08,14,09,17,24.30
2010,08,14,09,18,24.30
2010,08,14,09,19,24.30
2010,08,14,09,20,24.30
2010,08,14,09,21,24.30
2010,08,14,09,22,24.40
2010,08,14,09,23,24.40
2010,08,14,09,24,24.40
2010,08,14,09,25,24.40
2010,08,14,09,26,24.40
2010,08,14,09,27,24.50
2010,08,14,09,28,24.60
2010,08,14,09,29,24.70
2010,08,14,09,30,24.80
2010,08,14,09,31,24.80
2010,08,14,09,32,24.90
2010,08,14,09,33,24.90
2010,08,14,09,34,25.00
2010,08,14,09,35,25.00
2010,08,14,09,36,25.00
2010,08,14,09,37,25.10
2010,08,14,09,38,25.10
2010,08,14,09,39,25.10
2010,08,14,09,40,25.10
2010,08,14,09,41,25.10
2010,08,14,09,42,25.10
2010,08,14,09,43,25.00
2010,08,14,09,44,24.90
2010,08,14,09,45,24.90
2010,08,14,09,46,24.90
2010,08,14,09,47,24.80
2010,08,14,09,48,24.70
2010,08,14,09,49,24.60
2010,08,14,09,50,24.60
2010,08,14,09,51,24.50
2010,08,14,09,52,24.40
2010,08,14,09,53,24.30
2010,08,14,09,54,24.20
2010,08,14,09,55,24.20
2010,08,14,09,56,24.20
2010,08,14,09,57,24.20
2010,08,14,09,58,24.20
2010,08,14,09,59,24.20
2010,08,14,10,00,24.20
2010,08,14,10,01,24.10
2010,08,14,10,02,24.00
2010,08,14,10,03,23.90
2010,08,14,10,04,23.90
2010,08,14,10,05,23.90
2010,08,14,10,06,23.80
2010,08,14,10,07,23.80
2010,08,14,10,08,23.70
2010,08,14,10,09,23.70
2010,08,14,10,10,23.70
2010,08,14,10,11,23.70
2010,08,14,10,12,23.80
2010,08,14,10,13,23.80
2010,08,14,10,14,23.80
2010,08,14,10,15,23.70
2010,08,14,10,16,23.70
2010,08,14,10,17,23.70
2010,08,14,10,18,23.70
2010,08,14,10,19,23.70
2010,08,14,10,20,23.70
2010,08,14,10,21,23.70
2010,08,14,10,22,23.70
2010,08,14,10,23,23.60
2010,08,14,10,24,23.60
2010,08,14,10,25,23.60
2010,08,14,10,26,23.70
2010,08,14,10,27,23.70
2010,08,14,10,28,23.60
2010,08,14,10,29,23.60
2010,08,14,10,30,23.60
2010,08,14,10,31,23.70
2010,08,14,10,32,23.70
2010,08,14,10,33,23.70
2010,08,14,10,34,23.70
2010,08,14,10,35,23.60
2010,08,14,10,36,23.60
2010,08,14,10,37,23.60
2010,08,14,10,38,23.50
2010,08,14,10,39,23.50
2010,08,14,10,40,23.40
2010,08,14,10,41,23.50
2010,08,14,10,42,23.60
2010,08,14,10,43,23.60
2010,08,14,10,44,23.60
2010,08,14,10,45,23.60
2010,08,14,10,46,23.70
2010,08,14,10,47,23.70
2010,08,14,10,48,23.70
2010,08,14,10,49,23.80
2010,08,14,10,50,23.80
2010,08,14,10,51,23.80
2010,08,14,10,52,23.80
2010,08,14,10,53,23.70
2010,08,14,10,54,23.60
2010,08,14,10,55,23.50
2010,08,14,10,56,23.40
2010,08,14,10,57,23.40
2010,08,14,10,58,23.40
2010,08,14,10,59,23.40
2010,08,14,11,00,23.40
2010,08,14,11,01,23.40
2010,08,14,11,02,23.40
2010,08,14,11,03,23.40
2010,08,14,11,04,23.50
2010,08,14,11,05,23.50
2010,08,14,11,06,23.60
2010,08,14,11,07,23.70
2010,08,14,11,08,23.70
2010,08,14,11,09,23.80
2010,08,14,11,10,23.80
2010,08,14,11,11,23.90
2010,08,14,11,12,24.00
2010,08,14,11,13,24.00
2010,08,14,11,14,24.10
2010,08,14,11,15,24.10
2010,08,14,11,16,24.10
2010,08,14,11,17,24.20
2010,08,14,11,18,24.20
2010,08,14,11,19,24.40
2010,08,14,11,20,24.50
2010,08,14,11,21,24.60
2010,08,14,11,22,24.70
2010,08,14,11,23,24.80
2010,08,14,11,24,24.90
2010,08,14,11,25,25.00
2010,08,14,11,26,25.10
2010,08,14,11,27,25.20
2010,08,14,11,28,25.30
2010,08,14,11,29,25.30
2010,08,14,11,30,25.40
2010,08,14,11,31,25.40
2010,08,14,11,32,25.40
2010,08,14,11,33,25.50
2010,08,14,11,34,25.50
2010,08,14,11,35,25.60
2010,08,14,11,36,25.80
2010,08,14,11,37,25.90
2010,08,14,11,38,25.90
2010,08,14,11,39,25.90
2010,08,14,11,40,25.90
2010,08,14,11,41,25.90
2010,08,14,11,42,26.00
2010,08,14,11,43,26.10
2010,08,14,11,44,26.20
2010,08,14,11,45,26.30
2010,08,14,11,46,26.30
2010,08,14,11,47,26.20
2010,08,14,11,48,26.20
2010,08,14,11,49,26.10
2010,08,14,11,50,26.00
2010,08,14,11,51,26.10
2010,08,14,11,52,26.10
2010,08,14,11,53,26.20
2010,08,14,11,54,26.30
2010,08,14,11,55,26.40
2010,08,14,11,56,26.50
2010,08,14,11,57,26.50
2010,08,14,11,58,26.60
2010,08,14,11,59,26.70
2010,08,14,12,00,26.70
2010,08,14,12,01,26.70
2010,08,14,12,02,26.70
2010,08,14,12,03,26.70
2010,08,14,12,04,26.70
2010,08,14,12,05,26.80
2010,08,14,12,06,26.70
2010,08,14,12,07,26.70
2010,08,14,12,08,26.70
2010,08,14,12,09,26.60
2010,08,14,12,10,26.70
2010,08,14,12,11,26.70
2010,08,14,12,12,26.70
2010,08,14,12,13,26.80
2010,08,14,12,14,26.90
2010,08,14,12,15,26.90
2010,08,14,12,16,27.00
2010,08,14,12,17,26.90
2010,08,14,12,18,26.80
2010,08,14,12,19,26.70
2010,08,14,12,20,26.60
2010,08,14,12,21,26.50
2010,08,14,12,22,26.40
2010,08,14,12,23,26.30
2010,08,14,12,24,26.30
2010,08,14,12,25,26.20
2010,08,14,12,26,26.20
2010,08,14,12,27,26.10
2010,08,14,12,28,26.00
2010,08,14,12,29,26.00
2010,08,14,12,30,25.90
2010,08,14,12,31,25.90
2010,08,14,12,32,25.90
2010,08,14,12,33,25.90
2010,08,14,12,34,25.90
2010,08,14,12,35,25.90
2010,08,14,12,36,25.80
2010,08,14,12,37,25.90
2010,08,14,12,38,25.90
2010,08,14,12,39,25.80
2010,08,14,12,40,25.70
2010,08,14,12,41,25.60
2010,08,14,12,42,25.60
2010,08,14,12,43,25.60
2010,08,14,12,44,25.60
2010,08,14,12,45,25.70
2010,08,14,12,46,25.80
2010,08,14,12,47,25.80
2010,08,14,12,48,25.80
2010,08,14,12,49,25.80
2010,08,14,12,50,25.80
2010,08,14,12,51,25.80
2010,08,14,12,52,25.90
2010,08,14,12,53,25.90
2010,08,14,12,54,25.90
2010,08,14,12,55,25.90
2010,08,14,12,56,25.90
2010,08,14,12,57,25.80
2010,08,14,12,58,25.70
2010,08,14,12,59,25.70
2010,08,14,13,00,25.70
2010,08,14,13,01,25.70
2010,08,14,13,02,25.70
2010,08,14,13,03,25.80
2010,08,14,13,04,25.80
2010,08,14,13,05,25.90
2010,08,14,13,06,25.90
2010,08,14,13,07,25.90
2010,08,14,13,08,26.00
2010,08,14,13,09,26.00
2010,08,14,13,10,26.10
2010,08,14,13,11,26.10
2010,08,14,13,12,26.10
2010,08,14,13,13,26.10
2010,08,14,13,14,26.10
2010,08,14,13,15,26.10
2010,08,14,13,16,26.10
2010,08,14,13,17,26.10
2010,08,14,13,18,26.20
2010,08,14,13,19,26.20
2010,08,14,13,20,26.20
2010,08,14,13,21,26.20
2010,08,14,13,22,26.20
2010,08,14,13,23,26.10
2010,08,14,13,24,26.10
2010,08,14,13,25,26.10
2010,08,14,13,26,26.00
2010,08,14,13,27,25.90
2010,08,14,13,28,25.90
2010,08,14,13,29,25.80
2010,08,14,13,30,25.80
2010,08,14,13,31,25.70
2010,08,14,13,32,25.60
2010,08,14,13,33,25.50
2010,08,14,13,34,25.40
2010,08,14,13,35,25.30
2010,08,14,13,36,25.30
2010,08,14,13,37,25.30
2010,08,14,13,38,25.40
2010,08,14,13,39,25.50
2010,08,14,13,40,25.50
2010,08,14,13,41,25.60
2010,08,14,13,42,25.60
2010,08,14,13,43,25.60
2010,08,14,13,44,25.70
2010,08,14,13,45,25.70
2010,08,14,13,46,25.80
2010,08,14,13,47,25.90
2010,08,14,13,48,26.00
2010,08,14,13,49,26.10
2010,08,14,13,50,26.10
2010,08,14,13,51,26.10
2010,08,14,13,52,26.20
2010,08,14,13,53,26.20
2010,08,14,13,54,26.20
2010,08,14,13,55,26.30
2010,08,14,13,56,26.30
2010,08,14,13,57,26.40
2010,08,14,13,58,26.50
2010,08,14,13,59,26.60
2010,08,14,14,00,26.70
2010,08,14,14,01,26.80
2010,08,14,14,02,26.80
2010,08,14,14,03,26.80
2010,08,14,14,04,26.90
2010,08,14,14,05,26.90
2010,08,14,14,06,27.00
2010,08,14,14,07,27.10
2010,08,14,14,08,27.20
2010,08,14,14,09,27.40
2010,08,14,14,10,27.40
2010,08,14,14,11,27.50
2010,08,14,14,12,27.50
2010,08,14,14,13,27.60
2010,08,14,14,14,27.70
2010,08,14,14,15,27.70
2010,08,14,14,16,27.80
2010,08,14,14,17,27.80
2010,08,14,14,18,27.70
2010,08,14,14,19,27.70
2010,08,14,14,20,27.70
2010,08,14,14,21,27.70
2010,08,14,14,22,27.70
2010,08,14,14,23,27.70
2010,08,14,14,24,27.80
2010,08,14,14,25,27.80
2010,08,14,14,26,27.90
2010,08,14,14,27,27.90
2010,08,14,14,28,27.90
2010,08,14,14,29,27.90
2010,08,14,14,30,28.00
2010,08,14,14,31,28.10
2010,08,14,14,32,28.20
2010,08,14,14,33,28.20
2010,08,14,14,34,28.30
2010,08,14,14,35,28.30
2010,08,14,14,36,28.30
2010,08,14,14,37,28.30
2010,08,14,14,38,28.30
2010,08,14,14,39,28.20
2010,08,14,14,40,28.20
2010,08,14,14,41,28.20
2010,08,14,14,42,28.20
2010,08,14,14,43,28.30
2010,08,14,14,44,28.30
2010,08,14,14,45,28.30
2010,08,14,14,46,28.30
2010,08,14,14,47,28.30
2010,08,14,14,48,28.40
2010,08,14,14,49,28.40
2010,08,14,14,50,28.50
2010,08,14,14,51,28.60
2010,08,14,14,52,28.70
2010,08,14,14,53,28.70
2010,08,14,14,54,28.70
2010,08,14,14,55,28.70
2010,08,14,14,56,28.70
2010,08,14,14,57,28.70
2010,08,14,14,58,28.70
2010,08,14,14,59,28.70
2010,08,14,15,00,28.70
2010,08,14,15,01,28.70
2010,08,14,15,02,28.80
2010,08,14,15,03,28.90
2010,08,14,15,04,28.90
2010,08,14,15,05,29.00
2010,08,14,15,06,29.00
2010,08,14,15,07,29.10
2010,08,14,15,08,29.10
2010,08,14,15,09,29.20
2010,08,14,15,10,29.30
2010,08,14,15,11,29.30
2010,08,14,15,12,29.30
2010,08,14,15,13,29.20
2010,08,14,15,14,29.20
2010,08,14,15,15,29.20
2010,08,14,15,16,29.20
2010,08,14,15,17,29.20
2010,08,14,15,18,29.20
2010,08,14,15,19,29.30
2010,08,14,15,20,29.30
2010,08,14,15,21,29.30
2010,08,14,15,22,29.30
2010,08,14,15,23,29.30
2010,08,14,15,24,29.30
2010,08,14,15,25,29.30
2010,08,14,15,26,29.40
2010,08,14,15,27,29.40
2010,08,14,15,28,29.40
2010,08,14,15,29,29.50
2010,08,14,15,30,29.50
2010,08,14,15,31,29.50
2010,08,14,15,32,29.50
2010,08,14,15,33,29.40
2010,08,14,15,34,29.40
2010,08,14,15,35,29.50
2010,08,14,15,36,29.60
2010,08,14,15,37,29.60
2010,08,14,15,38,29.70
2010,08,14,15,39,29.70
2010,08,14,15,40,29.80
2010,08,14,15,41,29.80
2010,08,14,15,42,29.80
2010,08,14,15,43,29.80
2010,08,14,15,44,29.70
2010,08,14,15,45,29.70
2010,08,14,15,46,29.70
2010,08,14,15,47,29.70
2010,08,14,15,48,29.60
2010,08,14,15,49,29.60
2010,08,14,15,50,29.60
2010,08,14,15,51,29.60
2010,08,14,15,52,29.60
2010,08,14,15,53,29.60
2010,08,14,15,54,29.60
2010,08,14,15,55,29.60
2010,08,14,15,56,29.60
2010,08,14,15,57,29.60
2010,08,14,15,58,29.60
2010,08,14,15,59,29.60
2010,08,14,16,00,29.60
2010,08,14,16,01,29.60
2010,08,14,16,02,29.60
2010,08,14,16,03,29.60
2010,08,14,16,04,29.60
2010,08,14,16,05,29.60
2010,08,14,16,06,29.60
2010,08,14,16,07,29.60
2010,08,14,16,08,29.50
2010,08,14,16,09,29.50
2010,08,14,16,10,29.40
2010,08,14,16,11,29.30
2010,08,14,16,12,29.30
2010,08,14,16,13,29.30
2010,08,14,16,14,29.30
2010,08,14,16,15,29.30
2010,08,14,16,16,29.40
2010,08,14,16,17,29.50
2010,08,14,16,18,29.50
2010,08,14,16,19,29.50
2010,08,14,16,20,29.50
2010,08,14,16,21,29.60
2010,08,14,16,22,29.60
2010,08,14,16,23,29.70
2010,08,14,16,24,29.70
2010,08,14,16,25,29.60
2010,08,14,16,26,29.60
2010,08,14,16,27,29.60
2010,08,14,16,28,29.50
2010,08,14,16,29,29.50
2010,08,14,16,30,29.50
2010,08,14,16,31,29.60
2010,08,14,16,32,29.60
2010,08,14,16,33,29.60
2010,08,14,16,34,29.70
2010,08,14,16,35,29.70
2010,08,14,16,36,29.80
2010,08,14,16,37,29.70
2010,08,14,16,38,29.80
2010,08,14,16,39,29.80
2010,08,14,16,40,29.80
2010,08,14,16,41,29.80
2010,08,14,16,42,29.80
2010,08,14,16,43,29.80
2010,08,14,16,44,29.80
2010,08,14,16,45,29.80
2010,08,14,16,46,29.90
2010,08,14,16,47,29.90
2010,08,14,16,48,29.90
2010,08,14,16,49,29.90
2010,08,14,16,50,29.90
2010,08,14,16,51,29.90
2010,08,14,16,52,29.90
2010,08,14,16,53,29.90
2010,08,14,16,54,30.00
2010,08,14,16,55,30.00
2010,08,14,16,56,30.10
2010,08,14,16,57,30.10
2010,08,14,16,58,30.10
2010,08,14,16,59,30.10
2010,08,14,17,00,30.10
2010,08,14,17,01,30.20
2010,08,14,17,02,30.10
2010,08,14,17,03,30.10
2010,08,14,17,04,30.00
2010,08,14,17,05,30.00
2010,08,14,17,06,30.00
2010,08,14,17,07,30.00
2010,08,14,17,08,30.00
2010,08,14,17,09,30.00
2010,08,14,17,10,30.00
2010,08,14,17,11,30.00
2010,08,14,17,12,30.00
2010,08,14,17,13,30.00
2010,08,14,17,14,30.00
2010,08,14,17,15,30.10
2010,08,14,17,16,30.10
2010,08,14,17,17,30.10
2010,08,14,17,18,30.10
2010,08,14,17,19,30.10